Time,TemperatureF,DewpointF,PressureIn,WindDirection,WindDirectionDegrees,WindSpeedMPH,WindSpeedGustMPH,Humidity,HourlyPrecipIn,Conditions,Clouds,dailyrainin,SolarRadiationWatts/m^2,SoftwareType,DateUTC
2013-08-21 00:02:00,74.0,74.0,-100.00,SSE,162,7.0,9.0,100,0.00,,,0.00,0.000000,,2013-08-21 05:02:00,
2013-08-21 00:11:00,73.0,73.0,-100.00,SSE,165,7.0,9.0,100,0.00,,,0.00,0.000000,,2013-08-21 05:11:00,
2013-08-21 00:43:00,73.0,73.0,-100.00,SSE,165,7.0,9.0,100,0.00,,,0.00,0.000000,,2013-08-21 05:43:00,
2013-08-21 00:52:00,73.0,73.0,-100.00,SSE,165,7.0,9.0,100,0.00,,,0.00,0.000000,,2013-08-21 05:52:00,
2013-08-21 01:02:00,73.0,73.0,-100.00,SSE,165,7.0,9.0,100,0.00,,,0.00,0.000000,,2013-08-21 06:02:00,
2013-08-21 01:11:00,74.0,74.0,-100.00,South,178,9.0,13.0,99,0.00,,,0.00,0.000000,,2013-08-21 06:11:00,
2013-08-21 01:42:00,74.0,74.0,-100.00,South,178,9.0,13.0,99,0.00,,,0.00,0.000000,,2013-08-21 06:42:00,
2013-08-21 01:52:00,74.0,74.0,-100.00,South,178,9.0,13.0,99,0.00,,,0.00,0.000000,,2013-08-21 06:52:00,
2013-08-21 02:02:00,74.0,74.0,-100.00,South,178,9.0,13.0,99,0.00,,,0.00,0.000000,,2013-08-21 07:02:00,
2013-08-21 02:11:00,74.0,74.0,-100.00,South,186,9.0,13.0,99,0.00,,,0.00,0.000000,,2013-08-21 07:11:00,
2013-08-21 02:42:00,74.0,74.0,-100.00,South,186,9.0,13.0,99,0.00,,,0.00,0.000000,,2013-08-21 07:42:00,
2013-08-21 02:53:00,74.0,74.0,-100.00,South,186,9.0,13.0,99,0.00,,,0.00,0.000000,,2013-08-21 07:53:00,
2013-08-21 03:03:00,74.0,74.0,-100.00,South,186,9.0,13.0,99,0.00,,,0.00,0.000000,,2013-08-21 08:03:00,
2013-08-21 03:11:00,73.0,73.0,-100.00,South,186,9.0,14.0,100,0.00,,,0.00,0.000000,,2013-08-21 08:11:00,
2013-08-21 03:43:00,73.0,73.0,-100.00,South,186,9.0,14.0,100,0.00,,,0.00,0.000000,,2013-08-21 08:43:00,
2013-08-21 03:53:00,73.0,73.0,-100.00,South,186,9.0,14.0,100,0.00,,,0.00,0.000000,,2013-08-21 08:53:00,
2013-08-21 04:01:00,73.0,73.0,-100.00,South,186,9.0,14.0,100,0.00,,,0.00,0.000000,,2013-08-21 09:01:00,
2013-08-21 04:11:00,71.0,71.0,-100.00,South,179,6.0,12.0,100,0.00,,,0.00,0.000000,,2013-08-21 09:11:00,
2013-08-21 04:43:00,71.0,71.0,-100.00,South,179,6.0,12.0,100,0.00,,,0.00,0.000000,,2013-08-21 09:43:00,
2013-08-21 04:54:00,71.0,71.0,-100.00,South,179,6.0,12.0,100,0.00,,,0.00,0.000000,,2013-08-21 09:54:00,
2013-08-21 05:03:00,71.0,71.0,-100.00,South,179,6.0,12.0,100,0.00,,,0.00,0.000000,,2013-08-21 10:03:00,
2013-08-21 05:11:00,70.0,70.0,-100.00,South,179,6.0,7.0,100,0.00,,,0.00,0.000000,,2013-08-21 10:11:00,
2013-08-21 05:43:00,70.0,70.0,-100.00,South,179,6.0,7.0,100,0.00,,,0.00,0.000000,,2013-08-21 10:43:00,
2013-08-21 05:52:00,70.0,70.0,-100.00,South,179,6.0,7.0,100,0.00,,,0.00,0.000000,,2013-08-21 10:52:00,
2013-08-21 06:03:00,70.0,70.0,-100.00,South,179,6.0,7.0,100,0.00,,,0.00,0.000000,,2013-08-21 11:03:00,
2013-08-21 06:11:00,69.0,69.0,-100.00,SSE,155,5.0,7.0,100,0.00,,,0.00,0.000000,,2013-08-21 11:11:00,
2013-08-21 06:42:00,69.0,69.0,-100.00,SSE,155,5.0,7.0,100,0.00,,,0.00,0.000000,,2013-08-21 11:42:00,
2013-08-21 06:53:00,69.0,69.0,-100.00,SSE,155,5.0,7.0,100,0.00,,,0.00,0.000000,,2013-08-21 11:53:00,
2013-08-21 07:01:00,69.0,69.0,-100.00,SSE,155,5.0,7.0,100,0.00,,,0.00,0.000000,,2013-08-21 12:01:00,
2013-08-21 07:11:00,70.0,70.0,-100.00,South,181,6.0,8.0,100,0.00,,,0.00,20.000000,,2013-08-21 12:11:00,
2013-08-21 07:42:00,70.0,70.0,-100.00,South,181,6.0,8.0,100,0.00,,,0.00,20.000000,,2013-08-21 12:42:00,
2013-08-21 07:52:00,70.0,70.0,-100.00,South,181,6.0,8.0,100,0.00,,,0.00,20.000000,,2013-08-21 12:52:00,
2013-08-21 08:02:00,70.0,70.0,-100.00,South,181,6.0,8.0,100,0.00,,,0.00,20.000000,,2013-08-21 13:02:00,
2013-08-21 08:11:00,71.0,71.0,-100.00,SSW,204,7.0,10.0,100,0.00,,,0.00,111.000000,,2013-08-21 13:11:00,
2013-08-21 08:42:00,71.0,71.0,-100.00,SSW,204,7.0,10.0,100,0.00,,,0.00,111.000000,,2013-08-21 13:42:00,
2013-08-21 08:52:00,71.0,71.0,-100.00,SSW,204,7.0,10.0,100,0.00,,,0.00,111.000000,,2013-08-21 13:52:00,
2013-08-21 09:02:00,71.0,71.0,-100.00,SSW,204,7.0,10.0,100,0.00,,,0.00,111.000000,,2013-08-21 14:02:00,
2013-08-21 09:11:00,75.0,73.0,-100.00,SW,235,7.0,14.0,92,0.00,,,0.00,291.000000,,2013-08-21 14:11:00,
2013-08-21 09:42:00,75.0,73.0,-100.00,SW,235,7.0,14.0,92,0.00,,,0.00,291.000000,,2013-08-21 14:42:00,
2013-08-21 09:52:00,75.0,73.0,-100.00,SW,235,7.0,14.0,92,0.00,,,0.00,291.000000,,2013-08-21 14:52:00,
2013-08-21 10:01:00,75.0,73.0,-100.00,SW,235,7.0,14.0,92,0.00,,,0.00,291.000000,,2013-08-21 15:01:00,
2013-08-21 10:11:00,78.0,73.0,-100.00,WNW,290,7.0,11.0,85,0.00,,,0.00,439.000000,,2013-08-21 15:11:00,
2013-08-21 10:43:00,78.0,73.0,-100.00,WNW,290,7.0,11.0,85,0.00,,,0.00,439.000000,,2013-08-21 15:43:00,
2013-08-21 10:55:00,78.0,73.0,-100.00,WNW,290,7.0,11.0,85,0.00,,,0.00,439.000000,,2013-08-21 15:55:00,
2013-08-21 11:04:00,78.0,73.0,-100.00,WNW,290,7.0,11.0,85,0.00,,,0.00,439.000000,,2013-08-21 16:04:00,
2013-08-21 11:11:00,81.0,75.0,-100.00,NW,308,10.0,14.0,81,0.00,,,0.00,550.000000,,2013-08-21 16:11:00,
2013-08-21 11:43:00,81.0,75.0,-100.00,NW,308,10.0,14.0,81,0.00,,,0.00,550.000000,,2013-08-21 16:43:00,
2013-08-21 11:53:00,81.0,75.0,-100.00,NW,308,10.0,14.0,81,0.00,,,0.00,550.000000,,2013-08-21 16:53:00,
2013-08-21 12:04:00,81.0,75.0,-100.00,NW,308,10.0,14.0,81,0.00,,,0.00,550.000000,,2013-08-21 17:04:00,
2013-08-21 12:11:00,82.0,75.0,-100.00,NNW,334,8.0,14.0,79,0.00,,,0.00,398.000000,,2013-08-21 17:11:00,
2013-08-21 12:43:00,82.0,75.0,-100.00,NNW,334,8.0,14.0,79,0.00,,,0.00,398.000000,,2013-08-21 17:43:00,
2013-08-21 12:53:00,82.0,75.0,-100.00,NNW,334,8.0,14.0,79,0.00,,,0.00,398.000000,,2013-08-21 17:53:00,
2013-08-21 13:02:00,82.0,75.0,-100.00,NNW,334,8.0,14.0,79,0.00,,,0.00,398.000000,,2013-08-21 18:02:00,
2013-08-21 13:11:00,83.0,74.0,-100.00,NNW,329,7.0,12.0,75,0.00,,,0.00,482.000000,,2013-08-21 18:11:00,
2013-08-21 13:42:00,83.0,74.0,-100.00,NNW,329,7.0,12.0,75,0.00,,,0.00,482.000000,,2013-08-21 18:42:00,
2013-08-21 13:52:00,83.0,74.0,-100.00,NNW,329,7.0,12.0,75,0.00,,,0.00,482.000000,,2013-08-21 18:52:00,
2013-08-21 14:01:00,83.0,74.0,-100.00,NNW,329,7.0,12.0,75,0.00,,,0.00,482.000000,,2013-08-21 19:01:00,
2013-08-21 14:11:00,86.0,73.0,-100.00,NNE,21,6.0,11.0,66,0.00,,,0.00,765.000000,,2013-08-21 19:11:00,
2013-08-21 14:42:00,86.0,73.0,-100.00,NNE,21,6.0,11.0,66,0.00,,,0.00,765.000000,,2013-08-21 19:42:00,
2013-08-21 14:52:00,86.0,73.0,-100.00,NNE,21,6.0,11.0,66,0.00,,,0.00,765.000000,,2013-08-21 19:52:00,
2013-08-21 15:03:00,86.0,73.0,-100.00,NNE,21,6.0,11.0,66,0.00,,,0.00,765.000000,,2013-08-21 20:03:00,
2013-08-21 15:11:00,89.0,71.0,-100.00,NNW,328,5.0,14.0,55,0.00,,,0.00,830.000000,,2013-08-21 20:11:00,
2013-08-21 15:42:00,89.0,71.0,-100.00,NNW,328,5.0,14.0,55,0.00,,,0.00,830.000000,,2013-08-21 20:42:00,
2013-08-21 15:52:00,89.0,71.0,-100.00,NNW,328,5.0,14.0,55,0.00,,,0.00,830.000000,,2013-08-21 20:52:00,
2013-08-21 16:02:00,89.0,71.0,-100.00,NNW,328,5.0,14.0,55,0.00,,,0.00,830.000000,,2013-08-21 21:02:00,
2013-08-21 16:11:00,89.0,73.0,-100.00,North,350,5.0,13.0,60,0.00,,,0.00,646.000000,,2013-08-21 21:11:00,
2013-08-21 16:45:00,89.0,73.0,-100.00,North,350,5.0,13.0,60,0.00,,,0.00,646.000000,,2013-08-21 21:45:00,
2013-08-21 16:55:00,89.0,73.0,-100.00,North,350,5.0,13.0,60,0.00,,,0.00,646.000000,,2013-08-21 21:55:00,
2013-08-21 17:04:00,89.0,73.0,-100.00,North,350,5.0,13.0,60,0.00,,,0.00,646.000000,,2013-08-21 22:04:00,
2013-08-21 17:11:00,88.0,69.0,-100.00,NE,51,8.0,14.0,54,0.00,,,0.00,585.000000,,2013-08-21 22:11:00,
2013-08-21 17:44:00,88.0,69.0,-100.00,NE,51,8.0,14.0,54,0.00,,,0.00,585.000000,,2013-08-21 22:44:00,
2013-08-21 17:53:00,88.0,69.0,-100.00,NE,51,8.0,14.0,54,0.00,,,0.00,585.000000,,2013-08-21 22:53:00,
2013-08-21 18:04:00,88.0,69.0,-100.00,NE,51,8.0,14.0,54,0.00,,,0.00,585.000000,,2013-08-21 23:04:00,
2013-08-21 18:11:00,86.0,68.0,-100.00,NNE,31,6.0,12.0,55,0.00,,,0.00,272.000000,,2013-08-21 23:11:00,
2013-08-21 18:43:00,86.0,68.0,-100.00,NNE,31,6.0,12.0,55,0.00,,,0.00,272.000000,,2013-08-21 23:43:00,
2013-08-21 18:53:00,86.0,68.0,-100.00,NNE,31,6.0,12.0,55,0.00,,,0.00,272.000000,,2013-08-21 23:53:00,
2013-08-21 19:02:00,86.0,68.0,-100.00,NNE,31,6.0,12.0,55,0.00,,,0.00,272.000000,,2013-08-22 00:02:00,
2013-08-21 19:11:00,81.0,67.0,-100.00,North,354,6.0,9.0,62,0.00,,,0.00,106.000000,,2013-08-22 00:11:00,
2013-08-21 19:42:00,81.0,67.0,-100.00,North,354,6.0,9.0,62,0.00,,,0.00,106.000000,,2013-08-22 00:42:00,
2013-08-21 19:52:00,81.0,67.0,-100.00,North,354,6.0,9.0,62,0.00,,,0.00,106.000000,,2013-08-22 00:52:00,
2013-08-21 20:02:00,81.0,67.0,-100.00,North,354,6.0,9.0,62,0.00,,,0.00,106.000000,,2013-08-22 01:02:00,
2013-08-21 20:11:00,78.0,62.0,-100.00,NNE,25,5.0,12.0,58,0.00,,,0.00,30.000000,,2013-08-22 01:11:00,
2013-08-21 20:42:00,78.0,62.0,-100.00,NNE,25,5.0,12.0,58,0.00,,,0.00,30.000000,,2013-08-22 01:42:00,
2013-08-21 20:52:00,78.0,62.0,-100.00,NNE,25,5.0,12.0,58,0.00,,,0.00,30.000000,,2013-08-22 01:52:00,
2013-08-21 21:03:00,78.0,62.0,-100.00,NNE,25,5.0,12.0,58,0.00,,,0.00,30.000000,,2013-08-22 02:03:00,
2013-08-21 21:11:00,73.0,62.0,-100.00,NNE,32,4.0,8.0,68,0.00,,,0.00,1.000000,,2013-08-22 02:11:00,
2013-08-21 21:52:00,73.0,62.0,-100.00,NNE,32,4.0,8.0,68,0.00,,,0.00,1.000000,,2013-08-22 02:52:00,
2013-08-21 22:02:00,73.0,62.0,-100.00,NNE,32,4.0,8.0,68,0.00,,,0.00,1.000000,,2013-08-22 03:02:00,
2013-08-21 22:11:00,70.0,63.0,-100.00,South,176,1.0,6.0,79,0.00,,,0.00,0.000000,,2013-08-22 03:11:00,
2013-08-21 22:45:00,70.0,63.0,-100.00,South,176,1.0,6.0,79,0.00,,,0.00,0.000000,,2013-08-22 03:45:00,
2013-08-21 22:54:00,70.0,63.0,-100.00,South,176,1.0,6.0,79,0.00,,,0.00,0.000000,,2013-08-22 03:54:00,
2013-08-21 23:04:00,70.0,63.0,-100.00,South,176,1.0,6.0,79,0.00,,,0.00,0.000000,,2013-08-22 04:04:00,
2013-08-21 23:11:00,67.0,61.0,-100.00,North,352,3.0,7.0,82,0.00,,,0.00,0.000000,,2013-08-22 04:11:00,